[[{"header":{"parameterUnit":"m.s-1","parameterCategory":1,"la1":30.2991,"la2":30.254,"lo1":-89.0895,"lo2":-89.0444,"dx":0.0017,"dy":0.0017,"nx":28,"ny":28,"refTime":"2023-01-02T15:00:00:Z","depth":0,"parameterNumber":2,"parameterNumberName":"U-component_of_WINDS"},"data":[0,0,0,0,0,0,0,0,0,0,0,0,0,0,0,0,0,0,0,0,0,0,0,0,0,0,0,0,0,0,0,0,0,0,0,0,0,0,0,0,0,0,0,0,0,0,0,0,0,0,0,0,0,0,0,0,0,0,-2.0295,-2.0294,0,-2.0247,-2.0246,-2.0246,-2.014,-2.0138,-2.0136,-2.0134,-2.0089,-2.009,-2.0091,0,0,0,0,0,0,0,0,0,0,0,0,0,-2.0301,-2.0301,-2.0295,-2.0294,-2.0293,-2.0247,-2.0246,-2.0245,-2.014,-2.0138,-2.0135,-2.0133,-2.0089,-2.009,-2.0091,0,0,0,0,0,0,0,0,0,0,0,0,0,-2.028,-2.0301,-2.0295,-2.0235,-2.0229,-2.0247,-2.0246,-2.0245,-2.0141,-2.0138,-2.0134,-2.0131,-2.0089,-2.009,-2.0091,-2.0164,0,0,-2.0095,-2.0095,0,0,0,0,0,0,0,0,-2.0281,-2.028,-2.0245,-2.0239,-2.0233,-2.0196,-2.0232,-2.0218,-2.0142,-2.0175,-2.0134,-2.013,-2.0128,-2.0125,-2.0124,-2.0162,-2.016,-2.0095,-2.0096,-2.0096,-2.0097,0,0,0,0,0,0,0,-2.0283,-2.0282,-2.0276,-2.0244,-2.0237,-2.0213,-2.0206,-2.0229,-2.017,-2.0172,-2.0164,-2.0159,-2.0124,-2.0123,-2.0122,-2.0159,-2.0095,-2.0096,-2.0097,-2.0097,-2.0257,-2.026,0,0,0,0,0,0,-2.0292,-2.0283,-2.0277,-2.0274,-2.0249,-2.0215,-2.0208,-2.0211,-2.017,-2.016,-2.0162,-2.0155,-2.0122,-2.0121,-2.012,-2.0203,-2.0096,-2.0097,-2.0098,-2.0253,-2.0257,-2.0261,0,0,0,0,0,0,-2.0293,-2.0293,-2.0279,-2.0277,-2.0273,-2.0219,-2.0223,-2.0212,-2.0211,-2.0162,-2.0152,-2.0171,-2.012,-2.0118,-2.0154,-2.02,-2.0098,-2.0099,-2.0249,-2.0255,-2.0259,-2.037,0,0,0,0,0,0,-2.0293,-2.0294,-2.0319,-2.0278,-2.0274,-2.0312,-2.0226,-2.0213,-2.0212,-2.0202,-2.0168,-2.016,-2.0117,-2.0153,-2.0155,-2.02,-2.01,-2.0245,-2.0252,-2.0258,-2.0362,-2.0378,-2.0392,0,0,0,0,0,-2.0294,-2.0353,-2.0321,-2.0321,-2.0304,-2.0315,-2.0313,-2.0261,-2.0217,-2.0243,-2.0212,-2.0161,-2.0195,-2.0157,-2.0159,-2.0205,-2.0242,-2.025,-2.0257,-2.0355,-2.0375,-2.0392,0,0,0,0,0,0,-2.0402,-2.0346,-2.031,-2.0357,-2.0342,-2.0297,-2.0328,-2.0284,-2.0282,-2.0272,-2.021,-2.0203,-2.0248,-2.023,-2.0189,-2.0274,-2.021,-2.0219,-2.0284,-2.0303,-2.0317,-2.0321,-2.0101,0,0,0,0,0,-2.0431,-2.0443,-2.0394,-2.0441,-2.0435,-2.0384,-2.0386,-2.0348,-2.033,-2.0323,-2.0295,-2.0281,-2.0288,-2.0294,-2.0299,-2.0359,-2.0351,-2.0392,-2.0408,-2.042,-2.0428,-2.0461,-2.0479,-2.0287,-2.0287,-2.0287,0,0,-2.0492,-2.0463,-2.0474,-2.0462,-2.0445,-2.0461,-2.0379,-2.0398,-2.0409,-2.0326,-2.0358,-2.0337,-2.0318,-2.0366,-2.0386,-2.0353,-2.048,-2.043,-2.0441,-2.0442,-2.0471,-2.0489,-2.0505,-2.0292,-2.0291,-2.029,0,0,-2.061,-2.0589,-2.0625,-2.061,-2.0586,-2.0552,-2.0561,-2.0524,-2.0506,-2.0537,-2.0475,-2.0489,-2.0503,-2.0492,-2.0488,-2.0605,-2.0558,-2.0608,-2.0687,-2.072,-2.0735,-2.0748,-2.079,-2.0806,-2.0616,-2.0617,-2.0617,0,-2.0688,-2.0707,-2.065,-2.0674,-2.0671,-2.0596,-2.0634,-2.0623,-2.0602,-2.0602,-2.0565,-2.0582,-2.0563,-2.0609,-2.0638,-2.0637,-2.0647,-2.0611,-2.0737,-2.0749,-2.0761,-2.08,-2.0816,-2.0623,-2.0622,-2.0622,-2.0621,0,-2.0806,-2.082,-2.0853,-2.0834,-2.0835,-2.0866,-2.0815,-2.0823,-2.0786,-2.0756,-2.079,-2.0765,-2.0763,-2.0772,-2.0736,-2.0813,-2.0793,-2.0748,-2.0682,-2.0786,-2.0822,-2.0837,-2.0632,-2.063,-2.0628,-2.0626,0,0,-2.0989,-2.0938,-2.0951,-2.0942,-2.0911,-2.0922,-2.0951,-2.0948,-2.0957,-2.0946,-2.0969,-2.0984,-2.0941,-2.0937,-2.09,-2.0928,-2.1023,-2.0878,-2.0877,-2.0907,-2.1108,-2.1143,-2.1161,-2.0992,-2.0995,-2.0997,-2.111,0,-2.11,-2.1143,-2.1094,-2.1149,-2.1162,-2.1092,-2.1118,-2.1103,-2.1077,-2.1086,-2.1058,-2.1069,-2.1012,-2.1009,-2.1034,-2.1006,-2.1063,-2.0997,-2.1015,-2.1016,-2.1021,-2.118,-2.1216,-2.1324,-2.1124,-2.1126,-2.1128,0,-2.1234,-2.1228,-2.1284,-2.125,-2.1254,-2.1278,-2.1272,-2.1281,-2.1264,-2.1243,-2.124,-2.1194,-2.1222,-2.1159,-2.1197,-2.1154,-2.1158,-2.1146,-2.1149,-2.1148,-2.1078,-2.1184,-2.1357,-2.1373,-2.115,-2.1148,-2.1146,0,-2.1362,-2.1369,-2.1403,-2.1398,-2.1359,-2.1377,-2.1363,-2.1341,-2.1344,-2.134,-2.1341,-2.1341,-2.1341,-2.1344,-2.13,-2.1258,-2.1345,-2.1277,-2.133,-2.1331,-2.135,-2.135,-2.1527,-2.1354,-2.1354,-2.1354,-2.1353,0,-2.1491,-2.1528,-2.1461,-2.1482,-2.1522,-2.1467,-2.1509,-2.1487,-2.1469,-2.1487,-2.1427,-2.1446,-2.1387,-2.14,-2.1367,-2.1404,-2.1405,-2.139,-2.1381,-2.1395,-2.1397,-2.1397,-2.1388,-2.1358,-2.1357,-2.1356,-2.1355,0,-2.164,-2.1596,-2.163,-2.1591,-2.1582,-2.1614,-2.1581,-2.1601,-2.1571,-2.1594,-2.1597,-2.1552,-2.1563,-2.1521,-2.1526,-2.1504,-2.1559,-2.1538,-2.1565,-2.1558,-2.1613,-2.1609,-2.1796,-2.1818,-2.1632,-2.1634,-2.1635,0,-2.1725,-2.1752,-2.1716,-2.1722,-2.171,-2.1722,-2.1724,-2.1671,-2.1676,-2.1659,-2.1681,-2.1688,-2.169,-2.1713,-2.1682,-2.1686,-2.1664,-2.173,-2.1664,-2.1679,-2.1666,-2.1664,-2.1667,-2.1743,-2.1745,-2.1747,-2.1749,0,-2.188,-2.1857,-2.1861,-2.1858,-2.1862,-2.1857,-2.1849,-2.1859,-2.1802,-2.1811,-2.1822,-2.1824,-2.1829,-2.1837,-2.1835,-2.1822,-2.1777,-2.177,-2.1782,-2.1797,-2.1812,-2.1805,-2.1602,-2.1766,-2.1764,-2.1763,-2.1762,-2.1761,-2.1999,-2.202,-2.1999,-2.2006,-2.1994,-2.1988,-2.2004,-2.1977,-2.1985,-2.1984,-2.1953,-2.1971,-2.1954,-2.1947,-2.1938,-2.1953,-2.1922,-2.194,-2.1945,-2.195,-2.1959,-2.181,-2.1952,-2.1952,-2.1951,-2.1951,-2.195,0,-2.2151,-2.2134,-2.2141,-2.2131,-2.2137,-2.2093,-2.2082,-2.2091,-2.2107,-2.2095,-2.2098,-2.2112,-2.212,-2.209,-2.2095,-2.2112,-2.2092,-2.2115,-2.2113,-2.2111,-2.1986,-2.1975,-2.2132,-2.2132,-2.2132,-2.2132,-2.2132,-2.2132,-2.2231,-2.2264,-2.224,-2.2268,-2.2251,-2.2266,-2.2264,-2.2259,-2.2249,-2.2267,-2.2273,-2.2253,-2.2234,-2.2237,-2.2243,-2.2235,-2.2239,-2.227,-2.2254,-2.2138,-2.212,-2.2103,-2.2092,-2.2271,-2.2272,-2.2378,-2.2379,-2.238]},{"header":{"parameterUnit":"m.s-1","parameterCategory":1,"la1":30.2991,"la2":30.254,"lo1":-89.0895,"lo2":-89.0444,"dx":0.0017,"dy":0.0017,"nx":28,"ny":28,"refTime":"2023-01-02T15:00:00:Z","depth":0,"parameterNumber":3,"parameterNumberName":"V-component_of_WINDS"},"data":[0,0,0,0,0,0,0,0,0,0,0,0,0,0,0,0,0,0,0,0,0,0,0,0,0,0,0,0,0,0,0,0,0,0,0,0,0,0,0,0,0,0,0,0,0,0,0,0,0,0,0,0,0,0,0,0,0,0,1.8548,1.8549,0,1.8596,1.8597,1.8597,1.8624,1.8624,1.8625,1.8625,1.8672,1.8673,1.8674,0,0,0,0,0,0,0,0,0,0,0,0,0,1.8479,1.848,1.8548,1.8549,1.8549,1.8596,1.8597,1.8597,1.8624,1.8625,1.8625,1.8625,1.8672,1.8673,1.8675,0,0,0,0,0,0,0,0,0,0,0,0,0,1.8516,1.8481,1.8548,1.8569,1.8571,1.8596,1.8597,1.8598,1.8624,1.8625,1.8625,1.8625,1.8671,1.8673,1.8675,1.8683,0,0,1.868,1.8681,0,0,0,0,0,0,0,0,1.8514,1.8519,1.8565,1.8567,1.857,1.8605,1.859,1.8626,1.8624,1.8604,1.8625,1.8625,1.8649,1.8653,1.8662,1.8685,1.8687,1.868,1.8681,1.8682,1.8683,0,0,0,0,0,0,0,1.8511,1.8517,1.8567,1.8566,1.8569,1.8575,1.858,1.8597,1.8625,1.8606,1.8608,1.8613,1.8651,1.866,1.8663,1.8688,1.868,1.8682,1.8683,1.8684,1.8721,1.8721,0,0,0,0,0,0,1.8506,1.8514,1.8566,1.8569,1.8542,1.8576,1.8582,1.8593,1.8625,1.863,1.8613,1.8614,1.8657,1.8661,1.8665,1.8677,1.8682,1.8684,1.8685,1.8721,1.8721,1.8721,0,0,0,0,0,0,1.8504,1.851,1.8564,1.8542,1.8549,1.8577,1.8589,1.8594,1.8603,1.8631,1.8636,1.8617,1.8657,1.8662,1.8678,1.8679,1.8685,1.8686,1.8721,1.8721,1.8721,1.87,0,0,0,0,0,0,1.8502,1.8509,1.8513,1.8542,1.8551,1.8577,1.8589,1.8595,1.8606,1.8608,1.8636,1.8641,1.8658,1.8676,1.868,1.8681,1.8687,1.8721,1.8721,1.8721,1.8701,1.8699,1.8698,0,0,0,0,0,1.85,1.8505,1.8513,1.8519,1.8556,1.8577,1.8582,1.8601,1.8606,1.861,1.8628,1.864,1.8678,1.8677,1.8682,1.8684,1.8721,1.8721,1.8721,1.8702,1.87,1.8698,0,0,0,0,0,0,1.8474,1.8509,1.8518,1.8533,1.8552,1.8581,1.8587,1.8599,1.8616,1.8617,1.8641,1.8647,1.866,1.8674,1.8672,1.8694,1.8701,1.8702,1.8684,1.8683,1.8681,1.8678,1.8689,0,0,0,0,0,1.847,1.8485,1.8515,1.8525,1.8534,1.8558,1.8568,1.8582,1.8602,1.861,1.8629,1.8648,1.8664,1.8674,1.8691,1.8703,1.8709,1.8707,1.8705,1.8704,1.8704,1.8712,1.8712,1.872,1.872,1.872,0,0,1.8463,1.8483,1.8491,1.852,1.8536,1.8551,1.8565,1.8579,1.859,1.8612,1.8629,1.8643,1.8666,1.868,1.8687,1.8692,1.8704,1.8704,1.8702,1.8704,1.8712,1.8711,1.8711,1.872,1.872,1.872,0,0,1.8456,1.8473,1.8484,1.85,1.8524,1.8541,1.8543,1.8571,1.8582,1.8599,1.8616,1.8629,1.8656,1.8672,1.8683,1.8683,1.8695,1.8688,1.868,1.8687,1.8687,1.8686,1.8686,1.8686,1.8688,1.8688,1.8688,0,1.8443,1.8466,1.8488,1.8502,1.8514,1.8535,1.8546,1.856,1.8589,1.8597,1.8601,1.8636,1.8653,1.8671,1.8672,1.868,1.8684,1.8685,1.8685,1.8685,1.8685,1.8685,1.8685,1.8687,1.8687,1.8687,1.8687,0,1.8449,1.8464,1.847,1.8498,1.8511,1.8523,1.8546,1.8557,1.857,1.8586,1.8603,1.8624,1.8645,1.865,1.8662,1.8671,1.8673,1.8681,1.8688,1.8683,1.8683,1.8684,1.8685,1.8686,1.8686,1.8686,0,0,1.8427,1.8467,1.8469,1.8482,1.8511,1.8523,1.8536,1.8558,1.8566,1.8585,1.8597,1.862,1.8628,1.8641,1.8655,1.8662,1.8661,1.8669,1.867,1.8667,1.8671,1.8665,1.8665,1.8669,1.8669,1.8669,1.8669,0,1.8425,1.845,1.847,1.8488,1.8503,1.8523,1.8535,1.8554,1.8569,1.8584,1.8601,1.8617,1.8626,1.8634,1.8641,1.8659,1.8662,1.8659,1.868,1.868,1.8673,1.8665,1.8658,1.8658,1.867,1.867,1.867,0,1.8425,1.8444,1.8463,1.8491,1.8498,1.8508,1.853,1.8544,1.8565,1.8576,1.8591,1.8606,1.8621,1.8627,1.8648,1.8646,1.8655,1.8665,1.8666,1.8668,1.8675,1.8668,1.8658,1.8658,1.8671,1.867,1.867,0,1.8408,1.8438,1.8454,1.8464,1.8497,1.8504,1.8517,1.8539,1.8551,1.857,1.8578,1.8598,1.8608,1.8623,1.8643,1.8646,1.8662,1.867,1.8671,1.867,1.8673,1.8673,1.8665,1.8679,1.8679,1.8679,1.8679,0,1.8403,1.8414,1.8446,1.8456,1.8469,1.8492,1.8504,1.852,1.8539,1.8552,1.8571,1.8582,1.8608,1.8623,1.8638,1.8653,1.8658,1.8667,1.8671,1.8665,1.8664,1.8672,1.8672,1.8679,1.8679,1.8679,1.8679,0,1.8386,1.8408,1.8426,1.8456,1.8464,1.8472,1.8497,1.8507,1.8524,1.854,1.8545,1.8571,1.8589,1.8611,1.8636,1.8646,1.866,1.8666,1.8653,1.8655,1.8655,1.8655,1.8652,1.8653,1.8666,1.8666,1.8666,0,1.8381,1.839,1.8421,1.8432,1.8445,1.8461,1.8474,1.8497,1.8509,1.8535,1.8541,1.8561,1.8578,1.8606,1.8627,1.8646,1.8653,1.8651,1.8656,1.865,1.8653,1.8652,1.8654,1.8649,1.8649,1.8649,1.8649,0,1.8371,1.8382,1.8399,1.842,1.8435,1.8452,1.8471,1.8478,1.8505,1.8517,1.8536,1.855,1.8576,1.8595,1.8617,1.8631,1.8644,1.8647,1.8648,1.8643,1.8635,1.8639,1.8649,1.8647,1.8647,1.8647,1.8647,1.8647,1.836,1.837,1.8393,1.8412,1.8428,1.8445,1.8456,1.8474,1.8491,1.8514,1.8527,1.8546,1.8568,1.8599,1.8612,1.8627,1.8632,1.8634,1.8634,1.8634,1.8633,1.8632,1.8631,1.8632,1.8632,1.8632,1.8632,0,1.8351,1.8368,1.8385,1.841,1.8425,1.8437,1.8458,1.8469,1.8486,1.8505,1.8522,1.8544,1.8563,1.8586,1.8606,1.8614,1.8621,1.8619,1.8618,1.8621,1.8628,1.8625,1.8613,1.8613,1.8613,1.8613,1.8613,1.8613,1.8348,1.8365,1.8378,1.8403,1.8419,1.8438,1.845,1.8465,1.8481,1.8505,1.8521,1.8536,1.8557,1.8579,1.8597,1.8603,1.861,1.8606,1.8614,1.8619,1.8621,1.8622,1.862,1.8607,1.8607,1.8607,1.8607,1.8607]}]]